Regional Weather Roundup
Issued by NWS Goodland, KS

Home | Current Version | Previous Version | Text Only | Print | Product List | Glossary On
Versions: 1 2 3 4 5 6 7 8 9 10 11 12 13 14 15 16 17 18 19 20 21 22 23 24 25 26 27 28 29 30 31 32 33 34 35 36 37 38 39 40 41 42 43 44 45 46 47 48 49 50
000
ASUS43 KGLD 220408
RWRGLD

GOODLAND FORECAST AREA HOURLY WEATHER ROUNDUP
NATIONAL WEATHER SERVICE GOODLAND KS
900 PM MST TUE FEB 21 2017

...OFFICIAL OBSERVATIONS...

CITY           SKY/WX    TMP DP  RH WIND       PRES   REMARKS
GOODLAND KS    CLOUDY    60  18  19 SW18      29.88F
HILL CITY KS   CLEAR     58  26  29 SW9       29.85S
IMPERIAL NEB   PTCLDY    50  22  33 SW8       29.83F
MCCOOK NEB     PTCLDY    54  25  32 W7        29.81F
AKRON CO       CLOUDY    53  15  22 SW15      29.88F
BURLINGTON CO  CLOUDY    53  19  26 W15       29.92S
LIMON CO       CLOUDY    58   8  13 SW15G21   29.96F
$$

...UNOFFICIAL OBSERVATIONS...

CITY           SKY/WX    TMP DP  RH WIND       PRES   REMARKS
LENORA KS        N/A     59  32  36 S10         N/A
NORTON KS      CLEAR     54  21  28 S8        29.82
SHARON SPRINGS   N/A     52  25  34 SW13        N/A
TRENTON NEB      N/A     54  32  43 W6          N/A
KIT CARSON CO    N/A     50  17  27 MISG        N/A
YUMA CO        FAIR      50  19  29 SW9       29.86F
$$



USA.gov is the U.S. government's official web portal to all federal, state and local government web resources and services.